TimeMDT,TemperatureF,Dew PointF,Humidity,Sea Level PressureIn,VisibilityMPH,Wind Direction,Wind SpeedMPH,Gust SpeedMPH,PrecipitationIn,Events,Conditions,WindDirDegrees,DateUTC
12:53 AM,27.0,27.0,100,29.94,10.0,WSW,4.6,-,N/A,,Clear,240,2013-04-12 06:53:00
1:53 AM,27.0,26.1,96,29.94,10.0,Calm,Calm,-,N/A,,Partly Cloudy,0,2013-04-12 07:53:00
2:53 AM,27.0,27.0,100,29.92,7.0,WSW,5.8,-,N/A,,Partly Cloudy,250,2013-04-12 08:53:00
3:17 AM,26.6,26.6,100,29.85,3.0,SW,6.9,-,N/A,,Mostly Cloudy,230,2013-04-12 09:17:00
3:39 AM,26.6,26.6,100,29.86,9.0,SW,4.6,-,N/A,,Unknown,230,2013-04-12 09:39:00
3:53 AM,28.0,28.0,100,29.93,10.0,Variable,3.5,-,N/A,,Unknown,0,2013-04-12 09:53:00
4:09 AM,28.4,26.6,93,29.87,10.0,Calm,Calm,-,N/A,,Overcast,0,2013-04-12 10:09:00
4:53 AM,28.9,28.9,100,29.92,10.0,Calm,Calm,-,N/A,,Overcast,0,2013-04-12 10:53:00
5:33 AM,32.0,30.2,93,29.87,10.0,West,10.4,-,N/A,,Overcast,270,2013-04-12 11:33:00
5:37 AM,32.0,30.2,93,29.87,10.0,West,10.4,-,N/A,,Overcast,270,2013-04-12 11:37:00
5:53 AM,32.0,30.9,96,29.92,8.0,West,11.5,-,N/A,,Overcast,270,2013-04-12 11:53:00
6:04 AM,32.0,30.2,93,29.87,1.8,West,12.7,-,0.00,Snow,Light Snow,280,2013-04-12 12:04:00
6:18 AM,32.0,32.0,100,29.87,3.0,WNW,11.5,-,0.00,Snow,Light Snow,300,2013-04-12 12:18:00
6:27 AM,33.8,32.0,93,29.88,9.0,WNW,15.0,-,0.00,,Overcast,300,2013-04-12 12:27:00
6:43 AM,33.8,32.0,93,29.88,10.0,NW,18.4,-,0.00,,Overcast,310,2013-04-12 12:43:00
6:50 AM,33.8,32.0,93,29.88,10.0,NW,19.6,-,0.00,,Overcast,310,2013-04-12 12:50:00
6:53 AM,33.1,32.0,96,29.94,10.0,NW,17.3,-,0.00,,Overcast,310,2013-04-12 12:53:00
7:53 AM,34.0,30.9,89,29.95,10.0,NW,15.0,-,0.00,,Mostly Cloudy,310,2013-04-12 13:53:00
8:44 AM,35.6,30.2,81,29.91,10.0,NW,19.6,26.5,N/A,,Scattered Clouds,310,2013-04-12 14:44:00
8:53 AM,35.1,30.9,85,29.95,10.0,NW,19.6,27.6,N/A,,Partly Cloudy,310,2013-04-12 14:53:00
9:53 AM,36.0,30.0,79,29.96,10.0,NW,23.0,31.1,N/A,,Mostly Cloudy,320,2013-04-12 15:53:00
10:17 AM,35.6,28.4,75,29.92,10.0,NW,25.3,31.1,N/A,,Overcast,320,2013-04-12 16:17:00
10:53 AM,37.0,28.0,70,29.99,10.0,NW,24.2,31.1,N/A,,Overcast,320,2013-04-12 16:53:00
11:42 AM,35.6,28.4,75,29.95,10.0,NW,21.9,32.2,N/A,,Mostly Cloudy,320,2013-04-12 17:42:00
11:53 AM,37.0,27.0,67,30.01,10.0,NW,27.6,33.4,N/A,,Overcast,320,2013-04-12 17:53:00
12:53 PM,37.9,27.0,65,30.01,10.0,NNW,23.0,33.4,N/A,,Mostly Cloudy,330,2013-04-12 18:53:00
1:53 PM,37.0,26.1,65,30.02,10.0,NW,27.6,38.0,N/A,,Clear,320,2013-04-12 19:53:00
2:53 PM,37.0,27.0,67,30.02,10.0,NNW,27.6,33.4,N/A,,Clear,330,2013-04-12 20:53:00
3:53 PM,39.9,27.0,60,30.01,10.0,NNW,18.4,24.2,N/A,,Clear,340,2013-04-12 21:53:00
4:53 PM,39.9,25.0,55,30.00,10.0,NW,18.4,24.2,N/A,,Clear,320,2013-04-12 22:53:00
5:53 PM,39.0,24.1,55,29.97,10.0,North,15.0,-,N/A,,Clear,350,2013-04-12 23:53:00
6:53 PM,39.0,24.1,55,29.96,10.0,North,6.9,-,N/A,,Clear,10,2013-04-13 00:53:00
7:53 PM,33.1,27.0,78,29.98,10.0,East,8.1,-,N/A,,Clear,100,2013-04-13 01:53:00
8:53 PM,28.9,26.1,89,29.99,10.0,South,6.9,-,N/A,,Clear,190,2013-04-13 02:53:00
9:53 PM,28.9,26.1,89,29.97,10.0,South,6.9,-,N/A,,Clear,180,2013-04-13 03:53:00
10:53 PM,27.0,25.0,92,29.94,10.0,SSE,5.8,-,N/A,,Clear,160,2013-04-13 04:53:00
11:53 PM,28.0,25.0,88,29.92,10.0,South,9.2,-,N/A,,Clear,170,2013-04-13 05:53:00